Canadian, TX

4:36 AM CST on December 14, 2017 (GMT -0600)
Hemphill County

Weather History for KHHF - March, 2013

Change the Weather History Date:

Wednesday, March 13, 2013

  Actual Average (KPPA) Record (KPPA)
Temperature  
Mean Temperature 48 °F -  
Max Temperature 67 °F 60 °F 82 °F (1967)
Min Temperature 30 °F 31 °F 11 °F (1993)
Degree Days  
Heating Degree Days 16    
Moisture  
Dew Point 32 °F    
Average Humidity 58    
Maximum Humidity 95    
Minimum Humidity 27    
Precipitation  
Precipitation 0.00 in - - ()
Sea Level Pressure  
Sea Level Pressure 30.29 in    
Wind  
Wind Speed 6 mph (SSW)    
Max Wind Speed 20 mph    
Max Gust Speed 29 mph    
Visibility 10 miles    
Events      
Averages and records for this station are not official NWS values.
T = Trace of Precipitation, MM = Missing Value Source: NWS Daily Summary

Daily Weather History Graph

Daily Weather History Graph

Search for Another Location

Airport or City:

Trip Planner

Search our weather history database for the weather conditions in past years. The results will help you decide how hot, cold, wet, or windy it might be!

Date:

Astronomy

Mar. 13, 2013 Rise Set
Actual Time 7:54 AM CDT 7:47 PM CDT
Civil Twilight 7:29 AM CDT 8:13 PM CDT
Nautical Twilight 6:59 AM CDT 8:42 PM CDT
Astronomical Twilight 6:29 AM CDT 9:12 PM CDT
Moon 8:40 AM CDT (3/13) 9:59 PM CDT (3/13)
Length of Visible Light 12h 43m
Length of Day
11h 52m
Waxing Crescent, 4% of the Moon is Illuminated
Mar 13
Waxing Crescent
Mar 19
First Quarter
Mar 27
Full
Apr 2
Last Quarter
Apr 10
New

Hourly Weather History & Observations

Time (CDT) Temp. Windchill Dew Point Humidity Pressure Visibility Wind Dir Wind Speed Gust Speed Precip Events Conditions
12:15 AM 36.7 °F 34.1 °F 31.5 °F 81% 30.35 in 10.0 mi SW 3.5 mph - N/A   Clear
12:55 AM 35.6 °F - 31.1 °F 84% 30.36 in 10.0 mi Calm Calm - N/A   Clear
1:15 AM 34.0 °F - 30.2 °F 86% 30.36 in 10.0 mi Calm Calm - N/A   Clear
1:35 AM 33.4 °F - 30.0 °F 87% 30.35 in 10.0 mi Calm Calm - N/A   Clear
2:35 AM 32.5 °F - 30.2 °F 91% 30.35 in 10.0 mi Calm Calm - N/A   Clear
2:55 AM 33.6 °F 30.6 °F 30.4 °F 88% 30.35 in 10.0 mi SSW 3.5 mph - N/A   Clear
3:15 AM 32.7 °F 29.6 °F 30.0 °F 90% 30.35 in 10.0 mi SW 3.5 mph - N/A   Clear
3:55 AM 34.7 °F - 31.1 °F 87% 30.33 in 10.0 mi Calm Calm - N/A   Clear
4:15 AM 32.0 °F - 29.7 °F 91% 30.33 in 10.0 mi Calm Calm - N/A   Clear
4:35 AM 33.1 °F 28.7 °F 30.9 °F 92% 30.33 in 10.0 mi WSW 4.6 mph - N/A   Clear
4:55 AM 32.9 °F - 30.6 °F 91% 30.33 in 10.0 mi Calm Calm - N/A   Clear
5:15 AM 33.4 °F - 30.7 °F 90% 30.33 in 10.0 mi Calm Calm - N/A   Clear
5:35 AM 33.6 °F - 30.7 °F 89% 30.34 in 10.0 mi Calm Calm - N/A   Clear
5:55 AM 33.1 °F - 30.2 °F 89% 30.34 in 10.0 mi Calm Calm - N/A   Clear
6:15 AM 31.8 °F - 29.7 °F 92% 30.34 in 10.0 mi Calm Calm - N/A   Clear
6:35 AM 32.2 °F - 30.0 °F 92% 30.34 in 10.0 mi Calm Calm - N/A   Clear
6:55 AM 32.0 °F - 30.0 °F 92% 30.34 in 10.0 mi Calm Calm - N/A   Clear
7:15 AM 32.0 °F - 29.8 °F 92% 30.34 in 10.0 mi Calm Calm - N/A   Clear
7:35 AM 31.5 °F - 29.3 °F 92% 30.34 in 10.0 mi Calm Calm - N/A   Clear
7:55 AM 30.9 °F - 28.9 °F 92% 30.34 in 10.0 mi Calm Calm - N/A   Clear
8:15 AM 30.4 °F - 28.2 °F 92% 30.34 in 10.0 mi Calm Calm - N/A   Clear
8:35 AM 31.3 °F - 30.0 °F 95% 30.34 in 10.0 mi Calm Calm - N/A   Clear
8:55 AM 32.9 °F - 31.3 °F 94% 30.35 in 10.0 mi Calm Calm - N/A   Clear
9:15 AM 34.7 °F - 32.2 °F 91% 30.35 in 10.0 mi Calm Calm - N/A   Clear
9:35 AM 36.9 °F - 33.4 °F 87% 30.36 in 10.0 mi Calm Calm - N/A   Clear
10:15 AM 41.5 °F 38.6 °F 35.2 °F 78% 30.38 in 10.0 mi NNE 4.6 mph - N/A   Clear
10:35 AM 43.7 °F - 35.4 °F 73% 30.38 in 10.0 mi Calm Calm - N/A   Clear
10:55 AM 47.1 °F - 36.3 °F 66% 30.38 in 10.0 mi Calm Calm - N/A   Clear
11:15 AM 54.9 °F - 37.4 °F 52% 30.38 in 10.0 mi WSW 13.8 mph - N/A   Clear
11:35 AM 56.7 °F - 37.0 °F 48% 30.37 in 10.0 mi SW 13.8 mph - N/A   Clear
12:15 PM 58.5 °F - 36.0 °F 43% 30.35 in 10.0 mi SW 15.0 mph 20.7 mph N/A   Clear
12:35 PM 59.2 °F - 35.6 °F 41% 30.34 in 10.0 mi SW 15.0 mph 20.7 mph N/A   Clear
12:55 PM 60.6 °F - 34.3 °F 37% 30.33 in 10.0 mi SSW 16.1 mph 21.9 mph N/A   Clear
1:15 PM 61.0 °F - 33.3 °F 35% 30.32 in 10.0 mi SW 17.3 mph 25.3 mph N/A   Clear
1:35 PM 61.9 °F - 32.5 °F 33% 30.31 in 10.0 mi SW 19.6 mph 25.3 mph N/A   Clear
1:55 PM 62.2 °F - 31.6 °F 32% 30.31 in 10.0 mi SW 18.4 mph 21.9 mph N/A   Clear
2:15 PM 62.8 °F - 31.5 °F 31% 30.30 in 10.0 mi SW 12.7 mph 28.8 mph N/A   Clear
2:35 PM 63.5 °F - 32.0 °F 31% 30.28 in 10.0 mi SSW 13.8 mph 26.5 mph N/A   Clear
2:55 PM 64.4 °F - 32.7 °F 31% 30.28 in 10.0 mi SSW 13.8 mph 19.6 mph N/A   Clear
3:15 PM 64.4 °F - 33.1 °F 31% 30.26 in 10.0 mi SW 18.4 mph 28.8 mph N/A   Clear
3:35 PM 65.1 °F - 32.7 °F 30% 30.26 in 10.0 mi SW 13.8 mph 21.9 mph N/A   Clear
3:55 PM 65.8 °F - 32.5 °F 29% 30.25 in 10.0 mi SSW 19.6 mph 24.2 mph N/A   Clear
4:15 PM 66.2 °F - 32.5 °F 29% 30.25 in 10.0 mi SSW 13.8 mph 20.7 mph N/A   Clear
4:35 PM 66.6 °F - 32.9 °F 29% 30.24 in 10.0 mi SW 12.7 mph - N/A   Clear
4:55 PM 67.3 °F - 32.5 °F 28% 30.24 in 10.0 mi SSW 16.1 mph 23.0 mph N/A   Clear
5:15 PM 67.3 °F - 32.7 °F 28% 30.24 in 10.0 mi SW 12.7 mph 16.1 mph N/A   Clear
5:35 PM 67.5 °F - 32.5 °F 27% 30.24 in 10.0 mi SSW 13.8 mph - N/A   Clear
5:55 PM 67.5 °F - 32.7 °F 28% 30.24 in 10.0 mi SSW 11.5 mph 18.4 mph N/A   Clear
6:15 PM 67.5 °F - 32.5 °F 27% 30.23 in 10.0 mi SSW 12.7 mph - N/A   Clear
6:35 PM 67.5 °F - 32.4 °F 27% 30.22 in 10.0 mi SSW 12.7 mph 17.3 mph N/A   Clear
6:55 PM 66.4 °F - 32.2 °F 28% 30.22 in 10.0 mi SSW 11.5 mph - N/A   Clear
7:15 PM 64.6 °F - 33.1 °F 31% 30.22 in 10.0 mi South 9.2 mph - N/A   Clear
7:35 PM 63.0 °F - 33.3 °F 33% 30.22 in 10.0 mi South 9.2 mph - N/A   Clear
7:55 PM 60.6 °F - 34.3 °F 37% 30.21 in 10.0 mi South 8.1 mph - N/A   Clear
8:15 PM 59.5 °F - 34.0 °F 38% 30.21 in 10.0 mi South 9.2 mph - N/A   Clear
8:35 PM 59.9 °F - 34.0 °F 38% 30.21 in 10.0 mi South 12.7 mph - N/A   Clear
8:55 PM 59.4 °F - 33.8 °F 38% 30.21 in 10.0 mi South 13.8 mph - N/A   Clear
9:15 PM 58.6 °F - 33.4 °F 39% 30.21 in 10.0 mi South 18.4 mph - N/A   Clear
9:35 PM 58.1 °F - 33.8 °F 40% 30.21 in 10.0 mi South 13.8 mph 18.4 mph N/A   Clear
9:55 PM 57.4 °F - 33.8 °F 41% 30.21 in 10.0 mi South 17.3 mph 20.7 mph N/A   Clear
10:15 PM 57.4 °F - 33.1 °F 40% 30.22 in 10.0 mi South 18.4 mph 23.0 mph N/A   Clear
10:35 PM 57.4 °F - 33.1 °F 40% 30.22 in 10.0 mi South 17.3 mph 24.2 mph N/A   Clear
10:55 PM 57.0 °F - 32.9 °F 40% 30.23 in 10.0 mi South 17.3 mph - N/A   Clear
11:15 PM 56.5 °F - 32.7 °F 41% 30.23 in 10.0 mi South 17.3 mph 23.0 mph N/A   Clear
11:35 PM 56.3 °F - 32.7 °F 41% 30.23 in 10.0 mi South 17.3 mph 23.0 mph N/A   Clear
11:55 PM 55.9 °F - 32.5 °F 41% 30.23 in 10.0 mi SSW 18.4 mph 21.9 mph N/A   Clear